Regional Weather Roundup
Issued by NWS

Home | Current Version | Previous Version | Graphics & Text | Print | Product List | Glossary On
Versions: 1 2 3 4 5 6 7 8 9 10 11 12 13 14 15 16 17 18 19 20 21 22 23 24 25 26 27 28 29 30 31 32 33 34 35 36 37 38 39 40 41 42 43 44 45 46 47 48 49 50
156
ASUS43 KDTX 250701
RWRMI
MICHIGAN HOURLY REGIONAL WEATHER ROUNDUP
NATIONAL WEATHER SERVICE DETROIT/PONTIAC MI
200 AM EST SUN FEB 25 2018

NOTE: "FAIR" INDICATES FEW OR NO CLOUDS BELOW 12,000 FEET WITH NO
SIGNIFICANT WEATHER AND/OR OBSTRUCTION TO VISIBILITY.

MIZ047>049-052>055-059>063-066>070-074>076-081>083-250800-
SOUTHEAST LOWER MICHIGAN

CITY           SKY/WX    TMP DP  RH WIND       PRES   REMARKS
ADRIAN         FOG       36  36 100 E8        29.59F VSB 1/4 WCI  30
ANN ARBOR      CLOUDY    39  39 100 E7        29.60F FOG     WCI  34
BAD AXE        CLOUDY    35  32  90 SE14G24   29.63F WCI  25
CARO           CLOUDY    36  34  92 E14G23    29.57F WCI  27
DETROIT CITY   CLOUDY    37  36  96 SE18G26   29.62F WCI  27
DETROIT        CLOUDY    39  38  96 E9        29.61F FOG     WCI  33
FLINT          CLOUDY    39  38  96 SE15G25   29.57F WCI  31
GROSSE ILE     CLOUDY    39  38  97 E13G18    29.59F FOG     WCI  32
HILLSDALE      FOG       37  36  93 S6G23     29.54F VSB 1/4 WCI  33
HOWELL         CLOUDY    38  38  99 SE17G25   29.56F FOG     WCI  29

CITY           SKY/WX    TMP DP  RH WIND       PRES   REMARKS
JACKSON        FOG       38  38 100 E14       29.55F VSB 1/4 WCI  30
LAMBERTVILLE   FOG       37  36  96 E3        29.58F VSB 3/4
LANSING        CLOUDY    40  39  97 SE20G29   29.53F WCI  30
LAPEER         CLOUDY    38  37  97 SE10G17   29.59F WCI  31
MASON          CLOUDY    40  37  87 SE14G22   29.54F FOG     WCI  32
MONROE         FOG       36  34  93 E12G17    29.58F VSB 1   WCI  27
MT. CLEMENS    CLOUDY    38  38 100 E16       29.60F WCI  28
PONTIAC        CLOUDY    36  36 100 SE14G22   29.58F FOG     WCI  27
PORT HOPE        N/A     35  31  85 SE25G36   29.62F WCI  23
PORT HURON     CLOUDY    39  36  87 SE15G21   29.64F WCI  31
TRI CITIES     CLOUDY    36  34  92 SE9       29.58F FOG     WCI  29
MIDLAND        CLOUDY    35  33  93 E9        29.57F WCI  28
TROY           CLOUDY    38  37  94 E9G16     29.63F FOG     WCI  31
SAGINAW HB     CLOUDY    36  34  93 SE12      29.57F WCI  27
$$
MIZ043>046-050>051-056>058-064>065-071>073-077>080-250800-
SOUTHWEST LOWER MICHIGAN

CITY           SKY/WX    TMP DP  RH WIND       PRES   REMARKS
BATTLE CREEK   LGT RAIN  41  40  96 SE15G22   29.50F FOG
BENTON HARBOR  CLOUDY    45  43  93 SE16      29.44F FOG
BIG RAPIDS     CLOUDY    33  31  93 SE15G21   29.48F FOG     WCI  23
COLDWATER      FOG       42  42 100 SE13G21   29.52F VSB 1
HOLLAND        HVY RAIN  43  41  93 SE18G25   29.43F FOG
GRAND RAPIDS   LGT RAIN  40  38  93 SE16      29.48F FOG     WCI  31
IONIA          CLOUDY    39  39  99 SE17      29.50F WCI  30
KALAMAZOO      LGT RAIN  43  41  93 S10G20    29.49F FOG
LUDINGTON      CLOUDY    36  35  97 SE21G29   29.38F WCI  25
MARSHALL       CLOUDY    40  39  99 SE12      29.51F FOG     WCI  32
MOUNT PLEASANT CLOUDY    35  33  92 E10       29.53F FOG     WCI  27
MUSKEGON       CLOUDY    40  37  89 SE20G29   29.42F WCI  30
SOUTH HAVEN    MIX PCPN  45  43  94 SE14G24   29.44F
$$
MIZ016>042-250800-
NORTHERN LOWER MICHIGAN

CITY           SKY/WX    TMP DP  RH WIND       PRES   REMARKS
ALPENA         LGT RAIN  33  31  92 E17G26    29.66F WCI  22
BEAVER ISLAND  LGT SNOW  32  31  95 E14       29.48F WCI  22
BELLAIRE       FLURRIES  35  33  94 E20G28    29.48F WCI  23
CADILLAC       LGT SNOW  32  32  99 SE10G16   29.46F WCI  24
CHARLEVOIX     LGT SNOW  33  32  96 E13G23    29.50F WCI  24
FRANKFORT      RAIN      37  35  93 SE20G31   29.38F WCI  26
GAYLORD        FRZ RAIN  31  31 100 SE17G25   29.53F FOG     WCI  19
GRAYLING       SLEET     32  32 100 SE17      29.52F FOG     WCI  21
HARBOR SPRINGS LGT SNOW  32  31  98 E14G23    29.52F WCI  22
HOUGHTON LAKE  LGT RAIN  33  32  96 E17G30    29.53F FOG     WCI  22
MANISTEE       CLOUDY    36  34  92 SE17G24   29.39F WCI  26
OSCODA         CLOUDY    33  28  83 E10G20    29.64F WCI  25
PELLSTON       FRZ RAIN  33  30  88 E15G30    29.55F WCI  23
ROGERS CITY    CLOUDY    33  28  83 SE22G28   29.66F WCI  21
TRAVERSE CITY  LGT RAIN  36  32  85 SE14G25   29.44F WCI  27
$$
MIZ007>008-015-250800-
EASTERN UPPER MICHIGAN

CITY           SKY/WX    TMP DP  RH WIND       PRES   REMARKS
KINROSS        FLURRIES  29  25  85 SE25G33   29.63F WCI  14
MACKINAC ISLAN LGT SNOW  32  29  90 E23G35    29.58F WCI  19
NEWBERRY       LGT SNOW  31  30  96 E22G33    29.49F WCI  18
S. S. MARIE    CLOUDY    33  25  72 E14G26    29.63F WCI  23
MUNISING         N/A     32  31  96 S15G29    29.41F WCI  22
$$
MIZ004>006-011>014-085-250800-
CENTRAL UPPER MICHIGAN

CITY           SKY/WX    TMP DP  RH WIND       PRES   REMARKS
MANISTIQUE     LGT SNOW  31  29  94 E17G33    29.45F WCI  19
ESCANABA       LGT SNOW  31  30  96 SE16      29.44F FOG     WCI  20
MENOMINEE      LGT SNOW  32  31  96 S3        29.44S FOG
SAWYER-GWINN   LGT SNOW  28  26  89 SE12      29.39F WCI  18
$$
MIZ001>003-009>011-084-250800-
WESTERN UPPER MICHIGAN

CITY           SKY/WX    TMP DP  RH WIND       PRES   REMARKS
IRON MOUNTAIN  LGT SNOW  30  27  88 SE7       29.40F VSB 3/4 WCI  23
HOUGHTON       SNOW      28  24  85 E18       29.40F VSB 1/4 WCI  15
COPPER HARBOR    N/A     30  26  85 S14G24    29.45F WCI  19
IRONWOOD       LGT SNOW  28  27  96 E5        29.35F VSB 3/4 WCI  23
$$

ABBREVIATIONS USED IN REMARKS
   TC - TEMPERATURE IN CELSIUS
  WCI - WIND CHILL INDEX
   HX - HEAT INDEX
  VSB - VISIBILITY





USA.gov is the U.S. government's official web portal to all federal, state and local government web resources and services.